Time,TemperatureF,DewpointF,PressureIn,WindDirection,WindDirectionDegrees,WindSpeedMPH,WindSpeedGustMPH,Humidity,HourlyPrecipIn,Conditions,Clouds,dailyrainin,SoftwareType,DateUTC
2013-09-26 00:02:00,63.9,58.0,29.74,ESE,109,9.0,13.0,81,0.00,,,0.00,VWS V12.08,2013-09-26 05:02:00,
2013-09-26 00:07:00,63.9,58.0,29.74,ESE,115,7.0,14.0,81,0.00,,,0.00,VWS V12.08,2013-09-26 05:07:00,
2013-09-26 00:12:00,63.8,57.9,29.74,SE,130,4.0,15.0,81,0.00,,,0.00,VWS V12.08,2013-09-26 05:12:00,
2013-09-26 00:17:00,63.7,58.1,29.74,ESE,117,11.0,15.0,82,0.00,,,0.00,VWS V12.08,2013-09-26 05:17:00,
2013-09-26 00:22:00,63.7,58.1,29.74,SE,126,8.0,15.0,82,0.00,,,0.00,VWS V12.08,2013-09-26 05:22:00,
2013-09-26 00:27:00,63.6,58.0,29.74,SSE,153,7.0,15.0,82,0.00,,,0.00,VWS V12.08,2013-09-26 05:27:00,
2013-09-26 00:32:00,63.5,58.2,29.74,SE,133,10.0,10.0,83,0.00,,,0.00,VWS V12.08,2013-09-26 05:32:00,
2013-09-26 00:37:00,63.3,58.1,29.74,SSE,155,3.0,13.0,83,0.00,,,0.00,VWS V12.08,2013-09-26 05:37:00,
2013-09-26 00:42:00,63.1,58.2,29.74,South,172,3.0,13.0,84,0.00,,,0.00,VWS V12.08,2013-09-26 05:42:00,
2013-09-26 00:47:00,62.9,58.0,29.74,ESE,112,5.0,13.0,84,0.00,,,0.00,VWS V12.08,2013-09-26 05:47:00,
2013-09-26 00:53:00,62.8,58.2,29.74,SE,131,4.0,13.0,85,0.00,,,0.00,VWS V12.08,2013-09-26 05:53:00,
2013-09-26 00:58:00,62.6,58.0,29.74,SE,134,9.0,13.0,85,0.00,,,0.00,VWS V12.08,2013-09-26 05:58:00,
2013-09-26 01:03:00,62.6,58.4,29.74,ESE,121,6.0,9.0,86,0.00,,,0.00,VWS V12.08,2013-09-26 06:03:00,
2013-09-26 01:08:00,62.5,58.3,29.74,East,88,4.0,11.0,86,0.00,,,0.00,VWS V12.08,2013-09-26 06:08:00,
2013-09-26 01:13:00,62.4,58.2,29.74,ESE,116,6.0,11.0,86,0.00,,,0.00,VWS V12.08,2013-09-26 06:13:00,
2013-09-26 01:18:00,62.3,58.4,29.74,ESE,108,4.0,11.0,87,0.00,,,0.00,VWS V12.08,2013-09-26 06:18:00,
2013-09-26 01:23:00,62.3,58.4,29.74,SE,132,7.0,11.0,87,0.00,,,0.00,VWS V12.08,2013-09-26 06:23:00,
2013-09-26 01:28:00,62.4,58.5,29.74,SE,129,9.0,11.0,87,0.00,,,0.00,VWS V12.08,2013-09-26 06:28:00,
2013-09-26 01:33:00,62.3,58.4,29.74,ENE,66,7.0,10.0,87,0.00,,,0.00,VWS V12.08,2013-09-26 06:33:00,
2013-09-26 01:38:00,62.3,58.4,29.73,SE,129,4.0,11.0,87,0.00,,,0.00,VWS V12.08,2013-09-26 06:38:00,
2013-09-26 01:43:00,62.2,58.6,29.73,ESE,115,10.0,12.0,88,0.00,,,0.00,VWS V12.08,2013-09-26 06:43:00,
2013-09-26 01:48:00,62.1,58.5,29.73,SE,128,10.0,13.0,88,0.00,,,0.00,VWS V12.08,2013-09-26 06:48:00,
2013-09-26 01:53:00,62.1,58.5,29.73,ESE,107,10.0,14.0,88,0.00,,,0.00,VWS V12.08,2013-09-26 06:53:00,
2013-09-26 01:58:00,62.1,58.5,29.73,SE,139,12.0,15.0,88,0.00,,,0.00,VWS V12.08,2013-09-26 06:58:00,
2013-09-26 02:03:00,62.2,58.6,29.73,SE,132,7.0,12.0,88,0.00,,,0.00,VWS V12.08,2013-09-26 07:03:00,
2013-09-26 02:08:00,62.1,58.5,29.73,ESE,114,11.0,16.0,88,0.00,,,0.00,VWS V12.08,2013-09-26 07:08:00,
2013-09-26 02:13:00,62.0,58.4,29.73,SE,129,5.0,16.0,88,0.00,,,0.00,VWS V12.08,2013-09-26 07:13:00,
2013-09-26 02:18:00,61.8,58.5,29.73,SE,133,6.0,16.0,89,0.00,,,0.00,VWS V12.08,2013-09-26 07:18:00,
2013-09-26 02:23:00,61.8,58.5,29.73,SE,128,3.0,16.0,89,0.00,,,0.00,VWS V12.08,2013-09-26 07:23:00,
2013-09-26 02:28:00,61.8,58.5,29.72,SSE,167,4.0,16.0,89,0.00,,,0.00,VWS V12.08,2013-09-26 07:28:00,
2013-09-26 02:33:00,61.7,58.4,29.72,ESE,103,6.0,14.0,89,0.00,,,0.00,VWS V12.08,2013-09-26 07:33:00,
2013-09-26 02:38:00,61.6,58.3,29.72,ENE,76,6.0,14.0,89,0.00,,,0.00,VWS V12.08,2013-09-26 07:38:00,
2013-09-26 02:43:00,61.6,58.3,29.72,East,91,7.0,14.0,89,0.00,,,0.00,VWS V12.08,2013-09-26 07:43:00,
2013-09-26 02:48:00,61.6,58.3,29.71,ESE,110,11.0,14.0,89,0.00,,,0.00,VWS V12.08,2013-09-26 07:48:00,
2013-09-26 02:53:00,61.5,58.5,29.71,SSE,162,5.0,14.0,90,0.00,,,0.00,VWS V12.08,2013-09-26 07:53:00,
2013-09-26 02:58:00,61.5,58.5,29.71,SE,126,4.0,16.0,90,0.00,,,0.00,VWS V12.08,2013-09-26 07:58:00,
2013-09-26 03:03:00,61.4,58.5,29.71,ESE,121,5.0,12.0,90,0.00,,,0.00,VWS V12.08,2013-09-26 08:03:00,
2013-09-26 03:08:00,61.4,58.5,29.71,ESE,116,7.0,16.0,90,0.00,,,0.00,VWS V12.08,2013-09-26 08:08:00,
2013-09-26 03:13:00,61.3,58.3,29.71,ESE,113,6.0,16.0,90,0.00,,,0.00,VWS V12.08,2013-09-26 08:13:00,
2013-09-26 03:18:00,61.2,58.2,29.71,SE,146,3.0,16.0,90,0.00,,,0.00,VWS V12.08,2013-09-26 08:18:00,
2013-09-26 03:23:00,61.2,58.6,29.71,South,171,7.0,17.0,91,0.00,,,0.00,VWS V12.08,2013-09-26 08:23:00,
2013-09-26 03:28:00,61.2,58.6,29.71,SE,132,9.0,17.0,91,0.00,,,0.00,VWS V12.08,2013-09-26 08:28:00,
2013-09-26 03:33:00,61.1,58.5,29.71,ESE,115,12.0,14.0,91,0.00,,,0.00,VWS V12.08,2013-09-26 08:33:00,
2013-09-26 03:38:00,61.1,58.5,29.70,ESE,103,12.0,16.0,91,0.00,,,0.00,VWS V12.08,2013-09-26 08:38:00,
2013-09-26 03:43:00,61.1,58.5,29.70,SE,124,5.0,17.0,91,0.00,,,0.00,VWS V12.08,2013-09-26 08:43:00,
2013-09-26 03:48:00,61.0,58.4,29.70,ESE,117,7.0,17.0,91,0.00,,,0.00,VWS V12.08,2013-09-26 08:48:00,
2013-09-26 03:53:00,60.9,58.3,29.70,SE,127,10.0,17.0,91,0.00,,,0.00,VWS V12.08,2013-09-26 08:53:00,
2013-09-26 03:58:00,60.8,58.5,29.70,SE,128,5.0,17.0,92,0.00,,,0.00,VWS V12.08,2013-09-26 08:58:00,
2013-09-26 04:03:00,60.8,58.5,29.70,SSE,148,8.0,13.0,92,0.00,,,0.00,VWS V12.08,2013-09-26 09:03:00,
2013-09-26 04:08:00,60.8,58.5,29.70,East,91,9.0,15.0,92,0.00,,,0.00,VWS V12.08,2013-09-26 09:08:00,
2013-09-26 04:13:00,60.8,58.5,29.70,ESE,113,10.0,15.0,92,0.00,,,0.00,VWS V12.08,2013-09-26 09:13:00,
2013-09-26 04:18:00,60.8,58.5,29.70,SE,130,4.0,15.0,92,0.00,,,0.00,VWS V12.08,2013-09-26 09:18:00,
2013-09-26 04:23:00,60.8,58.5,29.70,East,88,6.0,15.0,92,0.00,,,0.00,VWS V12.08,2013-09-26 09:23:00,
2013-09-26 04:28:00,60.8,58.5,29.70,ESE,115,12.0,15.0,92,0.00,,,0.00,VWS V12.08,2013-09-26 09:28:00,
2013-09-26 04:33:00,60.9,58.9,29.70,SE,140,10.0,14.0,93,0.00,,,0.00,VWS V12.08,2013-09-26 09:33:00,
2013-09-26 04:38:00,60.9,58.9,29.70,SE,136,10.0,16.0,93,0.00,,,0.00,VWS V12.08,2013-09-26 09:38:00,
2013-09-26 04:43:00,60.9,58.9,29.70,SE,130,5.0,16.0,93,0.00,,,0.00,VWS V12.08,2013-09-26 09:43:00,
2013-09-26 04:48:00,60.9,58.9,29.70,ESE,119,8.0,16.0,93,0.00,,,0.00,VWS V12.08,2013-09-26 09:48:00,
2013-09-26 04:53:00,60.9,58.9,29.70,SE,136,13.0,16.0,93,0.00,,,0.00,VWS V12.08,2013-09-26 09:53:00,
2013-09-26 04:58:00,60.9,58.9,29.70,SSE,165,9.0,16.0,93,0.00,,,0.00,VWS V12.08,2013-09-26 09:58:00,
2013-09-26 05:03:00,61.0,59.0,29.70,ESE,115,13.0,14.0,93,0.00,,,0.00,VWS V12.08,2013-09-26 10:03:00,
2013-09-26 05:08:00,61.1,59.1,29.69,ESE,103,15.0,16.0,93,0.00,,,0.00,VWS V12.08,2013-09-26 10:08:00,
2013-09-26 05:13:00,61.2,59.2,29.69,SE,132,13.0,18.0,93,0.00,,,0.00,VWS V12.08,2013-09-26 10:13:00,
2013-09-26 05:18:00,61.2,59.2,29.69,SE,127,11.0,18.0,93,0.00,,,0.00,VWS V12.08,2013-09-26 10:18:00,
2013-09-26 05:23:00,61.2,59.2,29.69,SE,130,12.0,18.0,93,0.00,,,0.00,VWS V12.08,2013-09-26 10:23:00,
2013-09-26 05:28:00,61.3,59.3,29.69,ESE,119,10.0,18.0,93,0.00,,,0.00,VWS V12.08,2013-09-26 10:28:00,
2013-09-26 05:33:00,61.3,59.3,29.69,SE,139,9.0,17.0,93,0.00,,,0.00,VWS V12.08,2013-09-26 10:33:00,
2013-09-26 05:38:00,61.3,59.3,29.69,SE,130,6.0,17.0,93,0.00,,,0.00,VWS V12.08,2013-09-26 10:38:00,
2013-09-26 05:43:00,61.3,59.3,29.69,SE,129,13.0,17.0,93,0.00,,,0.00,VWS V12.08,2013-09-26 10:43:00,
2013-09-26 05:48:00,61.4,59.4,29.69,SE,130,7.0,17.0,93,0.00,,,0.00,VWS V12.08,2013-09-26 10:48:00,
2013-09-26 05:53:00,61.5,59.5,29.69,South,171,10.0,20.0,93,0.00,,,0.00,VWS V12.08,2013-09-26 10:53:00,
2013-09-26 05:58:00,61.5,59.5,29.69,SE,129,14.0,20.0,93,0.00,,,0.00,VWS V12.08,2013-09-26 10:58:00,
2013-09-26 06:03:00,61.5,59.5,29.69,ESE,123,11.0,16.0,93,0.00,,,0.00,VWS V12.08,2013-09-26 11:03:00,
2013-09-26 06:08:00,61.4,59.4,29.69,ESE,116,11.0,17.0,93,0.00,,,0.00,VWS V12.08,2013-09-26 11:08:00,
2013-09-26 06:13:00,61.3,59.3,29.69,ESE,121,9.0,20.0,93,0.00,,,0.00,VWS V12.08,2013-09-26 11:13:00,
2013-09-26 06:18:00,61.3,59.3,29.69,SSW,200,11.0,20.0,93,0.00,,,0.00,VWS V12.08,2013-09-26 11:18:00,
2013-09-26 06:23:00,61.2,59.2,29.69,SSE,167,15.0,20.0,93,0.00,,,0.00,VWS V12.08,2013-09-26 11:23:00,
2013-09-26 06:28:00,61.2,59.2,29.69,SE,134,16.0,20.0,93,0.00,,,0.00,VWS V12.08,2013-09-26 11:28:00,
2013-09-26 06:33:00,61.2,59.2,29.69,SE,142,13.0,19.0,93,0.00,,,0.00,VWS V12.08,2013-09-26 11:33:00,
2013-09-26 06:38:00,61.1,59.1,29.69,SE,136,12.0,19.0,93,0.00,,,0.00,VWS V12.08,2013-09-26 11:38:00,
2013-09-26 06:43:00,61.1,59.1,29.69,ESE,112,8.0,19.0,93,0.00,,,0.00,VWS V12.08,2013-09-26 11:43:00,
2013-09-26 06:48:00,61.0,59.0,29.69,SE,135,7.0,19.0,93,0.00,,,0.00,VWS V12.08,2013-09-26 11:48:00,
2013-09-26 06:53:00,61.0,58.7,29.69,SE,139,10.0,19.0,92,0.00,,,0.00,VWS V12.08,2013-09-26 11:53:00,
2013-09-26 06:58:00,60.9,58.6,29.69,SSE,152,13.0,19.0,92,0.00,,,0.00,VWS V12.08,2013-09-26 11:58:00,
2013-09-26 07:03:00,60.9,58.6,29.69,SE,140,9.0,18.0,92,0.00,,,0.00,VWS V12.08,2013-09-26 12:03:00,
2013-09-26 07:08:00,60.9,58.6,29.69,SSE,148,12.0,18.0,92,0.00,,,0.00,VWS V12.08,2013-09-26 12:08:00,
2013-09-26 07:13:00,61.0,58.7,29.69,SE,136,15.0,19.0,92,0.00,,,0.00,VWS V12.08,2013-09-26 12:13:00,
2013-09-26 07:18:00,60.9,58.6,29.69,SE,126,13.0,19.0,92,0.00,,,0.00,VWS V12.08,2013-09-26 12:18:00,
2013-09-26 07:23:00,60.9,58.6,29.69,ESE,121,14.0,19.0,92,0.00,,,0.00,VWS V12.08,2013-09-26 12:23:00,
2013-09-26 07:28:00,60.8,58.5,29.70,East,90,8.0,19.0,92,0.00,,,0.00,VWS V12.08,2013-09-26 12:28:00,
2013-09-26 07:33:00,60.8,58.5,29.70,ESE,118,12.0,16.0,92,0.00,,,0.00,VWS V12.08,2013-09-26 12:33:00,
2013-09-26 07:38:00,60.9,58.6,29.70,SE,141,12.0,18.0,92,0.00,,,0.00,VWS V12.08,2013-09-26 12:38:00,
2013-09-26 07:43:00,61.0,58.7,29.70,ESE,105,14.0,19.0,92,0.00,,,0.00,VWS V12.08,2013-09-26 12:43:00,
2013-09-26 07:48:00,61.1,58.8,29.70,SSE,156,15.0,19.0,92,0.00,,,0.00,VWS V12.08,2013-09-26 12:48:00,
2013-09-26 07:53:00,61.3,59.0,29.70,ESE,123,8.0,19.0,92,0.00,,,0.00,VWS V12.08,2013-09-26 12:53:00,
2013-09-26 07:58:00,61.5,58.8,29.70,ESE,121,13.0,19.0,91,0.00,,,0.00,VWS V12.08,2013-09-26 12:58:00,
2013-09-26 08:03:00,61.7,59.0,29.70,ESE,116,15.0,17.0,91,0.00,,,0.00,VWS V12.08,2013-09-26 13:03:00,
2013-09-26 08:08:00,61.9,59.2,29.70,SSE,153,5.0,22.0,91,0.00,,,0.00,VWS V12.08,2013-09-26 13:08:00,
2013-09-26 08:13:00,62.2,59.2,29.70,SE,142,11.0,22.0,90,0.00,,,0.00,VWS V12.08,2013-09-26 13:13:00,
2013-09-26 08:18:00,62.5,59.5,29.70,SE,140,13.0,22.0,90,0.00,,,0.00,VWS V12.08,2013-09-26 13:18:00,
2013-09-26 08:23:00,62.8,59.5,29.70,SE,141,16.0,22.0,89,0.00,,,0.00,VWS V12.08,2013-09-26 13:23:00,
2013-09-26 08:28:00,63.1,59.8,29.70,SE,137,12.0,22.0,89,0.00,,,0.00,VWS V12.08,2013-09-26 13:28:00,
2013-09-26 08:33:00,63.4,59.8,29.71,SE,141,14.0,17.0,88,0.00,,,0.00,VWS V12.08,2013-09-26 13:33:00,
2013-09-26 08:38:00,63.7,60.1,29.70,SE,131,11.0,20.0,88,0.00,,,0.00,VWS V12.08,2013-09-26 13:38:00,
2013-09-26 08:43:00,64.0,60.1,29.70,East,94,11.0,21.0,87,0.00,,,0.00,VWS V12.08,2013-09-26 13:43:00,
2013-09-26 08:48:00,64.3,60.3,29.70,SE,130,12.0,21.0,87,0.00,,,0.00,VWS V12.08,2013-09-26 13:48:00,
2013-09-26 08:53:00,64.6,60.3,29.70,SSE,160,19.0,23.0,86,0.00,,,0.00,VWS V12.08,2013-09-26 13:53:00,
2013-09-26 08:58:00,64.8,60.5,29.71,SSE,150,17.0,25.0,86,0.00,,,0.00,VWS V12.08,2013-09-26 13:58:00,
2013-09-26 09:03:00,65.1,60.5,29.71,SSE,148,16.0,22.0,85,0.00,,,0.00,VWS V12.08,2013-09-26 14:03:00,
2013-09-26 09:08:00,65.5,60.9,29.70,ESE,109,18.0,24.0,85,0.00,,,0.00,VWS V12.08,2013-09-26 14:08:00,
2013-09-26 09:13:00,65.8,60.8,29.70,ESE,123,10.0,24.0,84,0.00,,,0.00,VWS V12.08,2013-09-26 14:13:00,
2013-09-26 09:18:00,66.2,60.9,29.70,ESE,115,11.0,24.0,83,0.00,,,0.00,VWS V12.08,2013-09-26 14:18:00,
2013-09-26 09:23:00,66.5,60.8,29.70,SSE,155,19.0,24.0,82,0.00,,,0.00,VWS V12.08,2013-09-26 14:23:00,
2013-09-26 09:28:00,66.7,60.7,29.70,SE,139,22.0,32.0,81,0.00,,,0.00,VWS V12.08,2013-09-26 14:28:00,
2013-09-26 09:33:00,67.0,61.0,29.70,SE,142,18.0,26.0,81,0.00,,,0.00,VWS V12.08,2013-09-26 14:33:00,
2013-09-26 09:38:00,67.3,60.9,29.70,SE,144,14.0,29.0,80,0.00,,,0.00,VWS V12.08,2013-09-26 14:38:00,
2013-09-26 09:43:00,67.7,61.0,29.70,WSW,237,17.0,36.0,79,0.00,,,0.00,VWS V12.08,2013-09-26 14:43:00,
2013-09-26 09:48:00,68.0,60.9,29.70,South,172,26.0,36.0,78,0.00,,,0.00,VWS V12.08,2013-09-26 14:48:00,
2013-09-26 09:53:00,68.3,61.2,29.70,ESE,120,17.0,36.0,78,0.00,,,0.00,VWS V12.08,2013-09-26 14:53:00,
2013-09-26 09:58:00,68.5,61.0,29.70,SSE,150,25.0,36.0,77,0.00,,,0.00,VWS V12.08,2013-09-26 14:58:00,
2013-09-26 10:03:00,68.8,60.9,29.70,SSE,165,20.0,25.0,76,0.00,,,0.00,VWS V12.08,2013-09-26 15:03:00,
2013-09-26 10:08:00,69.3,61.0,29.70,ESE,121,17.0,28.0,75,0.00,,,0.00,VWS V12.08,2013-09-26 15:08:00,
2013-09-26 10:13:00,69.5,60.9,29.70,SSE,151,19.0,33.0,74,0.00,,,0.00,VWS V12.08,2013-09-26 15:13:00,
2013-09-26 10:18:00,69.6,60.6,29.70,South,169,20.0,33.0,73,0.00,,,0.00,VWS V12.08,2013-09-26 15:18:00,
2013-09-26 10:23:00,70.0,60.6,29.70,SE,144,26.0,33.0,72,0.00,,,0.00,VWS V12.08,2013-09-26 15:23:00,
2013-09-26 10:28:00,70.5,61.0,29.70,SSE,159,19.0,33.0,72,0.00,,,0.00,VWS V12.08,2013-09-26 15:28:00,
2013-09-26 10:33:00,70.7,60.5,29.71,ESE,106,22.0,31.0,70,0.00,,,0.00,VWS V12.08,2013-09-26 15:33:00,
2013-09-26 10:38:00,71.0,60.7,29.71,SSE,160,14.0,31.0,70,0.00,,,0.00,VWS V12.08,2013-09-26 15:38:00,
2013-09-26 10:43:00,71.2,60.9,29.71,SSW,200,21.0,31.0,70,0.00,,,0.00,VWS V12.08,2013-09-26 15:43:00,
2013-09-26 10:48:00,71.4,60.7,29.71,SSW,203,11.0,31.0,69,0.00,,,0.00,VWS V12.08,2013-09-26 15:48:00,
2013-09-26 10:53:00,72.1,61.0,29.71,SSE,163,21.0,31.0,68,0.00,,,0.00,VWS V12.08,2013-09-26 15:53:00,
2013-09-26 10:58:00,72.4,61.2,29.70,SSE,153,14.0,31.0,68,0.00,,,0.00,VWS V12.08,2013-09-26 15:58:00,
2013-09-26 11:03:00,72.5,60.9,29.70,SE,129,16.0,24.0,67,0.00,,,0.00,VWS V12.08,2013-09-26 16:03:00,
2013-09-26 11:08:00,72.7,61.1,29.70,SE,136,24.0,26.0,67,0.00,,,0.00,VWS V12.08,2013-09-26 16:08:00,
2013-09-26 11:13:00,72.9,60.9,29.70,SSE,151,22.0,26.0,66,0.00,,,0.00,VWS V12.08,2013-09-26 16:13:00,
2013-09-26 11:18:00,73.2,61.2,29.70,SE,129,21.0,26.0,66,0.00,,,0.00,VWS V12.08,2013-09-26 16:18:00,
2013-09-26 11:23:00,73.6,60.7,29.70,SSE,163,15.0,26.0,64,0.00,,,0.00,VWS V12.08,2013-09-26 16:23:00,
2013-09-26 11:28:00,74.4,61.0,29.70,SE,144,15.0,26.0,63,0.00,,,0.00,VWS V12.08,2013-09-26 16:28:00,
2013-09-26 11:33:00,74.8,60.9,29.70,SE,137,12.0,21.0,62,0.00,,,0.00,VWS V12.08,2013-09-26 16:33:00,
2013-09-26 11:38:00,75.2,60.8,29.70,SSW,198,14.0,26.0,61,0.00,,,0.00,VWS V12.08,2013-09-26 16:38:00,
2013-09-26 11:43:00,75.7,61.3,29.70,SE,134,9.0,27.0,61,0.00,,,0.00,VWS V12.08,2013-09-26 16:43:00,
2013-09-26 11:48:00,76.1,60.8,29.70,SSE,156,18.0,27.0,59,0.00,,,0.00,VWS V12.08,2013-09-26 16:48:00,
2013-09-26 11:53:00,76.5,61.1,29.70,SE,129,20.0,27.0,59,0.00,,,0.00,VWS V12.08,2013-09-26 16:53:00,
2013-09-26 11:59:00,76.8,60.4,29.69,ESE,103,13.0,27.0,57,0.00,,,0.00,VWS V12.08,2013-09-26 16:59:00,
2013-09-26 12:04:00,77.5,61.1,29.70,SE,146,9.0,25.0,57,0.00,,,0.00,VWS V12.08,2013-09-26 17:04:00,
2013-09-26 12:09:00,77.9,59.9,29.70,South,186,16.0,30.0,54,0.00,,,0.00,VWS V12.08,2013-09-26 17:09:00,
2013-09-26 12:14:00,78.4,59.9,29.70,SE,141,12.0,30.0,53,0.00,,,0.00,VWS V12.08,2013-09-26 17:14:00,
2013-09-26 12:19:00,78.8,59.7,29.69,SSE,168,15.0,33.0,52,0.00,,,0.00,VWS V12.08,2013-09-26 17:19:00,
2013-09-26 12:24:00,79.0,59.9,29.69,SE,146,15.0,33.0,52,0.00,,,0.00,VWS V12.08,2013-09-26 17:24:00,
2013-09-26 12:29:00,79.4,59.7,29.69,SSW,198,16.0,33.0,51,0.00,,,0.00,VWS V12.08,2013-09-26 17:29:00,
2013-09-26 12:34:00,79.6,59.3,29.68,SSW,211,21.0,27.0,50,0.00,,,0.00,VWS V12.08,2013-09-26 17:34:00,
2013-09-26 12:39:00,79.5,59.2,29.68,SW,221,12.0,27.0,50,0.00,,,0.00,VWS V12.08,2013-09-26 17:39:00,
2013-09-26 12:44:00,79.7,58.9,29.68,South,176,23.0,31.0,49,0.00,,,0.00,VWS V12.08,2013-09-26 17:44:00,
2013-09-26 12:49:00,80.1,59.8,29.68,SSE,160,21.0,31.0,50,0.00,,,0.00,VWS V12.08,2013-09-26 17:49:00,
2013-09-26 12:54:00,80.4,58.9,29.68,SSE,159,19.0,31.0,48,0.00,,,0.00,VWS V12.08,2013-09-26 17:54:00,
2013-09-26 12:59:00,80.5,59.0,29.67,SW,217,26.0,32.0,48,0.00,,,0.00,VWS V12.08,2013-09-26 17:59:00,
2013-09-26 13:04:00,80.4,59.5,29.67,ESE,119,11.0,31.0,49,0.00,,,0.00,VWS V12.08,2013-09-26 18:04:00,
2013-09-26 13:09:00,81.0,58.9,29.67,SE,145,12.0,31.0,47,0.00,,,0.00,VWS V12.08,2013-09-26 18:09:00,
2013-09-26 13:14:00,81.2,59.1,29.67,SSE,150,16.0,34.0,47,0.00,,,0.00,VWS V12.08,2013-09-26 18:14:00,
2013-09-26 13:19:00,81.6,58.8,29.67,South,175,28.0,34.0,46,0.00,,,0.00,VWS V12.08,2013-09-26 18:19:00,
2013-09-26 13:24:00,81.9,58.5,29.67,SSE,159,31.0,34.0,45,0.00,,,0.00,VWS V12.08,2013-09-26 18:24:00,
2013-09-26 13:29:00,82.0,58.6,29.67,SSE,167,18.0,34.0,45,0.00,,,0.00,VWS V12.08,2013-09-26 18:29:00,
2013-09-26 13:34:00,82.0,58.6,29.67,SSE,163,25.0,32.0,45,0.00,,,0.00,VWS V12.08,2013-09-26 18:34:00,
2013-09-26 13:39:00,81.9,58.5,29.66,SE,126,24.0,32.0,45,0.00,,,0.00,VWS V12.08,2013-09-26 18:39:00,
2013-09-26 13:44:00,82.4,59.0,29.66,South,173,10.0,32.0,45,0.00,,,0.00,VWS V12.08,2013-09-26 18:44:00,
2013-09-26 13:49:00,82.8,58.7,29.66,South,182,14.0,32.0,44,0.00,,,0.00,VWS V12.08,2013-09-26 18:49:00,
2013-09-26 13:54:00,82.5,59.0,29.65,SSW,192,12.0,32.0,45,0.00,,,0.00,VWS V12.08,2013-09-26 18:54:00,
2013-09-26 13:59:00,83.0,58.9,29.66,SSW,199,13.0,32.0,44,0.00,,,0.00,VWS V12.08,2013-09-26 18:59:00,
2013-09-26 14:04:00,83.0,58.9,29.66,ESE,119,19.0,23.0,44,0.00,,,0.00,VWS V12.08,2013-09-26 19:04:00,
2013-09-26 14:09:00,82.9,58.8,29.65,SSE,148,27.0,33.0,44,0.00,,,0.00,VWS V12.08,2013-09-26 19:09:00,
2013-09-26 14:14:00,82.9,58.8,29.65,South,172,22.0,33.0,44,0.00,,,0.00,VWS V12.08,2013-09-26 19:14:00,
2013-09-26 14:19:00,83.3,59.1,29.65,SE,133,19.0,33.0,44,0.00,,,0.00,VWS V12.08,2013-09-26 19:19:00,
2013-09-26 14:24:00,83.3,59.1,29.65,SSE,154,24.0,35.0,44,0.00,,,0.00,VWS V12.08,2013-09-26 19:24:00,
2013-09-26 14:29:00,83.0,58.9,29.65,SSE,164,21.0,35.0,44,0.00,,,0.00,VWS V12.08,2013-09-26 19:29:00,
2013-09-26 14:34:00,83.3,59.1,29.65,ESE,117,20.0,32.0,44,0.00,,,0.00,VWS V12.08,2013-09-26 19:34:00,
2013-09-26 14:39:00,83.4,59.2,29.65,SSE,164,18.0,32.0,44,0.00,,,0.00,VWS V12.08,2013-09-26 19:39:00,
2013-09-26 14:44:00,83.5,59.3,29.65,SE,134,25.0,33.0,44,0.00,,,0.00,VWS V12.08,2013-09-26 19:44:00,
2013-09-26 14:49:00,83.6,58.8,29.65,SW,214,21.0,33.0,43,0.00,,,0.00,VWS V12.08,2013-09-26 19:49:00,
2013-09-26 14:54:00,83.8,58.9,29.65,SE,136,6.0,33.0,43,0.00,,,0.00,VWS V12.08,2013-09-26 19:54:00,
2013-09-26 14:59:00,84.2,59.3,29.65,SSE,151,25.0,33.0,43,0.00,,,0.00,VWS V12.08,2013-09-26 19:59:00,
2013-09-26 15:04:00,84.1,59.2,29.65,SSE,149,13.0,32.0,43,0.00,,,0.00,VWS V12.08,2013-09-26 20:04:00,
2013-09-26 15:09:00,84.3,59.4,29.65,SSW,199,12.0,32.0,43,0.00,,,0.00,VWS V12.08,2013-09-26 20:09:00,
2013-09-26 15:14:00,84.4,59.5,29.65,SE,136,19.0,32.0,43,0.00,,,0.00,VWS V12.08,2013-09-26 20:14:00,
2013-09-26 15:19:00,84.4,59.5,29.65,ESE,109,11.0,33.0,43,0.00,,,0.00,VWS V12.08,2013-09-26 20:19:00,
2013-09-26 15:24:00,84.4,59.5,29.65,SE,132,22.0,33.0,43,0.00,,,0.00,VWS V12.08,2013-09-26 20:24:00,
2013-09-26 15:29:00,84.3,59.4,29.64,SE,134,11.0,33.0,43,0.00,,,0.00,VWS V12.08,2013-09-26 20:29:00,
2013-09-26 15:34:00,84.5,58.9,29.65,SSE,154,14.0,26.0,42,0.00,,,0.00,VWS V12.08,2013-09-26 20:34:00,
2013-09-26 15:39:00,85.1,60.1,29.64,SSE,155,15.0,26.0,43,0.00,,,0.00,VWS V12.08,2013-09-26 20:39:00,
2013-09-26 15:44:00,85.6,59.2,29.64,South,169,13.0,26.0,41,0.00,,,0.00,VWS V12.08,2013-09-26 20:44:00,
2013-09-26 15:49:00,85.6,59.2,29.64,NE,53,18.0,26.0,41,0.00,,,0.00,VWS V12.08,2013-09-26 20:49:00,
2013-09-26 15:54:00,85.6,59.2,29.64,SE,146,11.0,27.0,41,0.00,,,0.00,VWS V12.08,2013-09-26 20:54:00,
2013-09-26 15:59:00,85.6,59.2,29.64,SE,145,11.0,28.0,41,0.00,,,0.00,VWS V12.08,2013-09-26 20:59:00,
2013-09-26 16:04:00,85.1,58.8,29.64,SSE,154,30.0,30.0,41,0.00,,,0.00,VWS V12.08,2013-09-26 21:04:00,
2013-09-26 16:09:00,85.2,59.5,29.64,South,179,15.0,30.0,42,0.00,,,0.00,VWS V12.08,2013-09-26 21:09:00,
2013-09-26 16:14:00,85.7,59.3,29.64,South,171,9.0,30.0,41,0.00,,,0.00,VWS V12.08,2013-09-26 21:14:00,
2013-09-26 16:19:00,85.8,59.4,29.64,SSE,155,17.0,30.0,41,0.00,,,0.00,VWS V12.08,2013-09-26 21:19:00,
2013-09-26 16:24:00,85.7,59.3,29.64,SSE,161,10.0,30.0,41,0.00,,,0.00,VWS V12.08,2013-09-26 21:24:00,
2013-09-26 16:29:00,85.7,59.3,29.64,ESE,105,17.0,30.0,41,0.00,,,0.00,VWS V12.08,2013-09-26 21:29:00,
2013-09-26 16:35:00,85.5,59.1,29.64,SSW,207,17.0,28.0,41,0.00,,,0.00,VWS V12.08,2013-09-26 21:35:00,
2013-09-26 16:40:00,85.5,59.1,29.64,South,191,15.0,31.0,41,0.00,,,0.00,VWS V12.08,2013-09-26 21:40:00,
2013-09-26 16:45:00,85.5,59.1,29.64,South,180,18.0,31.0,41,0.00,,,0.00,VWS V12.08,2013-09-26 21:45:00,
2013-09-26 16:50:00,85.8,59.4,29.64,SSE,157,16.0,31.0,41,0.00,,,0.00,VWS V12.08,2013-09-26 21:50:00,
2013-09-26 16:55:00,85.9,59.5,29.64,ESE,121,21.0,31.0,41,0.00,,,0.00,VWS V12.08,2013-09-26 21:55:00,
2013-09-26 17:00:00,85.9,59.5,29.64,SE,143,6.0,31.0,41,0.00,,,0.00,VWS V12.08,2013-09-26 22:00:00,
2013-09-26 17:05:00,86.0,58.9,29.64,South,176,16.0,31.0,40,0.00,,,0.00,VWS V12.08,2013-09-26 22:05:00,
2013-09-26 17:10:00,85.9,59.5,29.64,SE,133,22.0,31.0,41,0.00,,,0.00,VWS V12.08,2013-09-26 22:10:00,
2013-09-26 17:15:00,85.6,59.2,29.65,SSE,149,24.0,31.0,41,0.00,,,0.00,VWS V12.08,2013-09-26 22:15:00,
2013-09-26 17:20:00,85.5,59.1,29.64,SSE,165,15.0,31.0,41,0.00,,,0.00,VWS V12.08,2013-09-26 22:20:00,
2013-09-26 17:25:00,85.3,59.6,29.65,SSW,199,21.0,31.0,42,0.00,,,0.00,VWS V12.08,2013-09-26 22:25:00,
2013-09-26 17:30:00,85.2,59.5,29.65,SSE,157,17.0,31.0,42,0.00,,,0.00,VWS V12.08,2013-09-26 22:30:00,
2013-09-26 17:35:00,85.1,59.5,29.65,South,178,15.0,25.0,42,0.00,,,0.00,VWS V12.08,2013-09-26 22:35:00,
2013-09-26 17:40:00,85.1,59.5,29.65,SSW,194,26.0,29.0,42,0.00,,,0.00,VWS V12.08,2013-09-26 22:40:00,
2013-09-26 17:44:00,85.1,59.5,29.65,SSE,155,12.0,29.0,42,0.00,,,0.00,VWS V12.08,2013-09-26 22:44:00,
2013-09-26 17:50:00,85.0,60.0,29.65,South,175,18.0,29.0,43,0.00,,,0.00,VWS V12.08,2013-09-26 22:50:00,
2013-09-26 17:55:00,84.9,59.9,29.65,SSE,158,7.0,29.0,43,0.00,,,0.00,VWS V12.08,2013-09-26 22:55:00,
2013-09-26 18:00:00,84.7,59.8,29.65,SSW,211,10.0,29.0,43,0.00,,,0.00,VWS V12.08,2013-09-26 23:00:00,
2013-09-26 18:05:00,84.6,59.7,29.65,SSE,156,5.0,20.0,43,0.00,,,0.00,VWS V12.08,2013-09-26 23:05:00,
2013-09-26 18:10:00,84.3,60.0,29.65,SE,138,11.0,25.0,44,0.00,,,0.00,VWS V12.08,2013-09-26 23:10:00,
2013-09-26 18:15:00,84.1,59.9,29.65,SSE,150,21.0,25.0,44,0.00,,,0.00,VWS V12.08,2013-09-26 23:15:00,
2013-09-26 18:20:00,83.8,60.2,29.65,SSE,165,12.0,25.0,45,0.00,,,0.00,VWS V12.08,2013-09-26 23:20:00,
2013-09-26 18:25:00,83.6,60.0,29.65,South,179,18.0,26.0,45,0.00,,,0.00,VWS V12.08,2013-09-26 23:25:00,
2013-09-26 18:30:00,83.3,59.8,29.65,SSE,152,15.0,26.0,45,0.00,,,0.00,VWS V12.08,2013-09-26 23:30:00,
2013-09-26 18:35:00,83.1,60.2,29.66,SE,126,13.0,20.0,46,0.00,,,0.00,VWS V12.08,2013-09-26 23:35:00,
2013-09-26 18:40:00,82.9,59.4,29.66,ESE,121,13.0,24.0,45,0.00,,,0.00,VWS V12.08,2013-09-26 23:40:00,
2013-09-26 18:45:00,82.6,59.8,29.66,SSE,148,16.0,24.0,46,0.00,,,0.00,VWS V12.08,2013-09-26 23:45:00,
2013-09-26 18:50:00,82.3,59.5,29.66,SE,137,13.0,24.0,46,0.00,,,0.00,VWS V12.08,2013-09-26 23:50:00,
2013-09-26 18:55:00,82.0,59.8,29.66,SSE,151,14.0,24.0,47,0.00,,,0.00,VWS V12.08,2013-09-26 23:55:00,
2013-09-26 19:01:00,81.6,60.0,29.66,SE,142,17.0,24.0,48,0.00,,,0.00,VWS V12.08,2013-09-27 00:01:00,
2013-09-26 19:06:00,81.1,59.6,29.66,South,172,10.0,15.0,48,0.00,,,0.00,VWS V12.08,2013-09-27 00:06:00,
2013-09-26 19:11:00,80.7,59.8,29.66,SSE,151,4.0,15.0,49,0.00,,,0.00,VWS V12.08,2013-09-27 00:11:00,
2013-09-26 19:16:00,80.3,60.0,29.67,SSW,192,6.0,17.0,50,0.00,,,0.00,VWS V12.08,2013-09-27 00:16:00,
2013-09-26 19:21:00,79.9,60.2,29.67,SE,126,10.0,17.0,51,0.00,,,0.00,VWS V12.08,2013-09-27 00:21:00,
2013-09-26 19:26:00,79.6,59.9,29.67,ESE,121,11.0,17.0,51,0.00,,,0.00,VWS V12.08,2013-09-27 00:26:00,
2013-09-26 19:31:00,79.2,60.1,29.67,SSE,153,6.0,6.0,52,0.00,,,0.00,VWS V12.08,2013-09-27 00:31:00,
2013-09-26 19:36:00,78.9,59.8,29.67,SE,146,11.0,15.0,52,0.00,,,0.00,VWS V12.08,2013-09-27 00:36:00,
2013-09-26 19:41:00,78.6,60.1,29.67,ESE,119,9.0,16.0,53,0.00,,,0.00,VWS V12.08,2013-09-27 00:41:00,
2013-09-26 19:46:00,78.4,59.9,29.67,SE,126,5.0,16.0,53,0.00,,,0.00,VWS V12.08,2013-09-27 00:46:00,
2013-09-26 19:51:00,78.1,60.1,29.68,ESE,119,6.0,16.0,54,0.00,,,0.00,VWS V12.08,2013-09-27 00:51:00,
2013-09-26 19:56:00,77.7,60.3,29.68,ESE,116,6.0,16.0,55,0.00,,,0.00,VWS V12.08,2013-09-27 00:56:00,
2013-09-26 20:01:00,77.4,60.0,29.68,SE,128,6.0,7.0,55,0.00,,,0.00,VWS V12.08,2013-09-27 01:01:00,
2013-09-26 20:06:00,77.0,60.1,29.68,SE,131,10.0,13.0,56,0.00,,,0.00,VWS V12.08,2013-09-27 01:06:00,
2013-09-26 20:11:00,76.7,59.8,29.69,SE,140,11.0,13.0,56,0.00,,,0.00,VWS V12.08,2013-09-27 01:11:00,
2013-09-26 20:16:00,76.6,60.2,29.69,South,169,3.0,14.0,57,0.00,,,0.00,VWS V12.08,2013-09-27 01:16:00,
2013-09-26 20:21:00,76.5,60.2,29.69,SE,141,10.0,15.0,57,0.00,,,0.00,VWS V12.08,2013-09-27 01:21:00,
2013-09-26 20:26:00,76.4,60.1,29.69,SSE,158,11.0,16.0,57,0.00,,,0.00,VWS V12.08,2013-09-27 01:26:00,
2013-09-26 20:31:00,76.2,59.9,29.69,SE,134,5.0,5.0,57,0.00,,,0.00,VWS V12.08,2013-09-27 01:31:00,
2013-09-26 20:36:00,76.0,60.2,29.70,SE,144,6.0,11.0,58,0.00,,,0.00,VWS V12.08,2013-09-27 01:36:00,
2013-09-26 20:41:00,75.7,59.9,29.70,SSE,149,5.0,12.0,58,0.00,,,0.00,VWS V12.08,2013-09-27 01:41:00,
2013-09-26 20:46:00,75.6,59.8,29.70,SSW,203,9.0,15.0,58,0.00,,,0.00,VWS V12.08,2013-09-27 01:46:00,
2013-09-26 20:51:00,75.6,59.8,29.71,SE,138,11.0,19.0,58,0.00,,,0.00,VWS V12.08,2013-09-27 01:51:00,
2013-09-26 20:56:00,75.7,59.9,29.71,SSE,165,9.0,19.0,58,0.00,,,0.00,VWS V12.08,2013-09-27 01:56:00,
2013-09-26 21:01:00,75.6,59.8,29.71,SE,145,9.0,14.0,58,0.00,,,0.00,VWS V12.08,2013-09-27 02:01:00,
2013-09-26 21:06:00,75.6,59.8,29.71,ESE,119,15.0,15.0,58,0.00,,,0.00,VWS V12.08,2013-09-27 02:06:00,
2013-09-26 21:11:00,75.6,59.8,29.71,SSE,149,9.0,15.0,58,0.00,,,0.00,VWS V12.08,2013-09-27 02:11:00,
2013-09-26 21:16:00,75.4,59.6,29.71,SE,136,11.0,18.0,58,0.00,,,0.00,VWS V12.08,2013-09-27 02:16:00,
2013-09-26 21:21:00,75.2,59.9,29.71,SE,145,7.0,18.0,59,0.00,,,0.00,VWS V12.08,2013-09-27 02:21:00,
2013-09-26 21:26:00,74.8,59.5,29.72,SE,144,6.0,18.0,59,0.00,,,0.00,VWS V12.08,2013-09-27 02:26:00,
2013-09-26 21:31:00,74.4,59.6,29.72,SW,229,6.0,6.0,60,0.00,,,0.00,VWS V12.08,2013-09-27 02:31:00,
2013-09-26 21:36:00,74.0,59.7,29.72,SE,132,12.0,12.0,61,0.00,,,0.00,VWS V12.08,2013-09-27 02:36:00,
2013-09-26 21:41:00,73.7,59.4,29.72,SE,144,9.0,17.0,61,0.00,,,0.00,VWS V12.08,2013-09-27 02:41:00,
2013-09-26 21:46:00,73.5,59.7,29.72,SE,130,10.0,17.0,62,0.00,,,0.00,VWS V12.08,2013-09-27 02:46:00,
2013-09-26 21:51:00,73.4,59.6,29.72,SSE,163,5.0,17.0,62,0.00,,,0.00,VWS V12.08,2013-09-27 02:51:00,
2013-09-26 21:56:00,73.3,60.0,29.72,SE,143,12.0,17.0,63,0.00,,,0.00,VWS V12.08,2013-09-27 02:56:00,
2013-09-26 22:02:00,73.1,59.8,29.72,SE,136,4.0,15.0,63,0.00,,,0.00,VWS V12.08,2013-09-27 03:02:00,
2013-09-26 22:07:00,73.1,59.8,29.72,NE,50,10.0,19.0,63,0.00,,,0.00,VWS V12.08,2013-09-27 03:07:00,
2013-09-26 22:12:00,73.0,59.7,29.72,SE,128,11.0,19.0,63,0.00,,,0.00,VWS V12.08,2013-09-27 03:12:00,
2013-09-26 22:17:00,72.9,60.0,29.72,ESE,117,9.0,19.0,64,0.00,,,0.00,VWS V12.08,2013-09-27 03:17:00,
2013-09-26 22:22:00,72.9,60.0,29.72,SE,134,11.0,19.0,64,0.00,,,0.00,VWS V12.08,2013-09-27 03:22:00,
2013-09-26 22:27:00,73.0,60.1,29.72,SE,146,11.0,19.0,64,0.00,,,0.00,VWS V12.08,2013-09-27 03:27:00,
2013-09-26 22:32:00,72.9,60.0,29.72,SE,145,3.0,11.0,64,0.00,,,0.00,VWS V12.08,2013-09-27 03:32:00,
2013-09-26 22:37:00,72.8,59.9,29.72,SSE,161,6.0,14.0,64,0.00,,,0.00,VWS V12.08,2013-09-27 03:37:00,
2013-09-26 22:42:00,72.7,59.8,29.72,SSE,151,11.0,14.0,64,0.00,,,0.00,VWS V12.08,2013-09-27 03:42:00,
2013-09-26 22:48:00,72.7,59.8,29.72,SSE,149,12.0,20.0,64,0.00,,,0.00,VWS V12.08,2013-09-27 03:48:00,
2013-09-26 22:53:00,72.7,59.8,29.72,ESE,119,11.0,20.0,64,0.00,,,0.00,VWS V12.08,2013-09-27 03:53:00,
2013-09-26 22:58:00,72.6,59.7,29.72,SE,133,16.0,20.0,64,0.00,,,0.00,VWS V12.08,2013-09-27 03:58:00,
2013-09-26 23:01:00,72.6,60.2,29.72,SE,138,13.0,20.0,65,0.00,,,0.00,VWS V12.08,2013-09-27 04:01:00,
2013-09-26 23:02:00,72.6,60.2,29.72,SE,145,6.0,13.0,65,0.00,,,0.00,VWS V12.08,2013-09-27 04:02:00,
2013-09-26 23:07:00,72.4,60.0,29.72,SE,134,6.0,16.0,65,0.00,,,0.00,VWS V12.08,2013-09-27 04:07:00,
2013-09-26 23:12:00,72.2,59.8,29.72,SE,124,5.0,16.0,65,0.00,,,0.00,VWS V12.08,2013-09-27 04:12:00,
2013-09-26 23:17:00,72.2,60.2,29.72,SSE,148,11.0,17.0,66,0.00,,,0.00,VWS V12.08,2013-09-27 04:17:00,
2013-09-26 23:22:00,72.0,60.0,29.72,SSE,155,3.0,17.0,66,0.00,,,0.00,VWS V12.08,2013-09-27 04:22:00,
2013-09-26 23:27:00,71.8,59.8,29.72,SSE,154,6.0,17.0,66,0.00,,,0.00,VWS V12.08,2013-09-27 04:27:00,
2013-09-26 23:32:00,71.7,60.2,29.72,ESE,102,10.0,10.0,67,0.00,,,0.00,VWS V12.08,2013-09-27 04:32:00,
2013-09-26 23:37:00,71.5,60.0,29.72,ESE,114,16.0,16.0,67,0.00,,,0.00,VWS V12.08,2013-09-27 04:37:00,
2013-09-26 23:42:00,71.3,59.8,29.72,SE,138,12.0,17.0,67,0.00,,,0.00,VWS V12.08,2013-09-27 04:42:00,
2013-09-26 23:47:00,71.2,59.7,29.72,NNE,26,4.0,17.0,67,0.00,,,0.00,VWS V12.08,2013-09-27 04:47:00,
2013-09-26 23:52:00,71.1,60.0,29.72,East,98,4.0,17.0,68,0.00,,,0.00,VWS V12.08,2013-09-27 04:52:00,
2013-09-26 23:57:00,71.0,59.9,29.72,ESE,111,11.0,17.0,68,0.00,,,0.00,VWS V12.08,2013-09-27 04:57:00,